Погода в Герце

Украина / Черновицкая область     48°08′47″N   26°15′30″E
темп.,
°C
ветер,
м/с
пор.,
м/с
влажн.,
%
обл.,
%
осадки,
мм/ч
давл.,
гПа
погр.,
м
1 марта, пн
пн123:00+3сз81481100 0.3 1027904
02:00+2сз71296100 3.8 1027686
05:00+2сз5997100 1.4 1027465
08:00+2ссз4997100 1.8 1029505
11:00+4ссз5881100 0.7 1031849
14:00+5с577297 0.9 1032977
17:00+5ссз366992 0.1 1033787
20:00+4сз368296 0.1 1034260
2 марта, вт
вт223:00+3зсз3687100 0.1 1035188
02:00+1зсз349080 0.1 103682
05:000зсз36891 0.0 1034157
08:00+1зсз39790 0.0 1034323
11:00+6зсз696010 0.0 1031525
14:00+10сз711525 0.0 1029754
17:00+9зсз614560 0.0 1027760
20:00+6сз618730 0.0 1029640
3 марта, ср
ср323:00+5сз717720 0.0 1030616
02:00+4сз614810 0.0 1031407
05:00+2зсз410890 0.0 1031278
08:00+2зсз369310 0.0 1032215
11:00+5сз358178 0.0 1031530
14:00+6сз357286 0.0 1030758
17:00+6сз247380 0.0 1028491
20:00+3ю118340 0.0 102922
4 марта, чт
чт423:00+3ю22880 0.0 102722
02:00+2ююв23910 0.0 102531
05:00+1ююв22890 0.0 102222
08:00+2юз11750 0.0 102122
11:00+8сз22540 0.0 1018270
14:00+12сз24404 0.0 1016760
17:00+11зсз225019 0.0 101441
20:00+7юз126212 0.0 101422
5 марта, пт
пт523:00+5юз22660 0.0 101422
02:00+4зюз126612 0.0 101322
05:00+4ю226799 0.0 101222
08:00+5ююз3667100 0.0 1011116
11:00+10юз5951100 0.0 1009637
14:00+11зюз3850100 0.0 10081123
17:00+11з61155100 0.0 1008595
20:00+6сз498577 0.1 1011487